Jackpot

Texas Poker Multi Jackpot System

Kini Telah hadir Jackpot SUPER ROYAL FLUSH

Kini Telah hadir Jackpot 2000 (khusus table VIP keatas).

Ikutilah global jackpot yang tersedia di system kami, dengan system jackpot terbaru dan pertama di indonesia, anda dapat membeli jackpot dengan harga 100 rupiah saja dan menangkan hadiahnya hingga puluhan juta rupiah.

Jackpot bukanlah suatu keharusan untuk dibeli, namun kami memberikan suatu fitur tambahan untuk member tercinta dari www.juvepoker.com.

Terdapat tiga pilihan harga jackpot yang bisa anda beli yaitu :100,500,1000 dan 2000(khusus table VIP Keatas) rupiah.

Hadiah dari Multi jackpot system www.juvepoker.com

  1. full house x 10 harga jackpot yang anda beli.
      (contoh:anda membeli 1000 maka:1000 X10 = 10.000)
  2. four of kind x 250 harga jackpot yang anda beli
      (contoh:anda membeli 1000 maka:1000 X250 = 250.000)
  3. Straight flush x 1200
      (contoh:anda membeli 1000 maka:1000 X1200 = 1.200.000)
  4. Royal flush x 10000 harga jackpot yang anda beli
      (contoh:anda membeli 1000 maka:1000 X10000 = 10.000.000)
  5. SUPER ROYAL FLUSH x 30000 harga jackpot yang anda beli
      (contoh:anda membeli 1000 maka:1000 X30000 = 30.000.000)

Kondisi kartu

  1. full house adalah kondisi kartu dimana kartu anda dan kartu tengah dengan total 7 kartu bisa mendapatkan nilai 5 kartu dengan kombinasi 1 tris(three of kind) dan 1 pair, contoh 3 kartu 10 dan 2 kartu 5
  2. Four of kind adalah kondisi kartu dimana kartu anda dan kartu tengah dengan total 7 kartu bisa mendapatkan nilai 5 kartu dengan kombinasi 4 kartu yang sama jumlah dan 1 kartu apapun juga contoh anda mendapatkan 4 buah kartu angka 3 dan 1 kartu apapun.
  3. Staright flush adalah kondisi kartu dimana kartu anda dan kartu tengah dengan total 7 kartu bisa mendapatkan nilai 5 kartu dengan kombinasi seri / staright dengan kembang yang sama contoh : urutan kartu dari angka 5, 6, 7, 8 , 9 10 dengan kembang yg sama misalnya as hati
  4. Royal flush adalah kondisi kartu dimana kartu anda dan kartu tengah dengan total 7 kartu bisa mendapatkan nilai 5 kartu dengan kombinasi seri / staright dengan kembang yang sama tetapi kartu tersebut haruslah dimulai dari 10. contoh 10, Queen, Jack, King dan aces dengan kembang yang sama
  5. Super Royal flush adalah kondisi kartu dimana Kedua kartu anda digabung dengan 3 kartu pertama meja haruslah royal flush. contoh kartu anda 10,Queen kembang sama dan 3 kartu pertama meja adalah Jack, King dan aces dengan kembang yang sama

Demikian adalah penjelasan dari Multi Jackpot www.juvepoker.com terima kasih dan selamat bermain salam hoki dari kami

Texas Poker Jackpot Winner

TOP SUPER ROYAL FLUSH
No.TanggalNamaPriceWin
128/04 07:28CHAEL123Super Royal flush15,000,000
228/04 00:55ROBBY7EESuper Royal flush3,000,000
327/04 23:00PASHONSuper Royal flush15,000,000
427/04 19:14BOTINZBEESuper Royal flush30,000,000
527/04 17:49CLUBRISKASuper Royal flush15,000,000
TOP ROYAL FLUSH
No.TanggalNamaPriceWin
128/04 11:15CIMUET1Royal flush5,000,000
228/04 11:15TBC911Royal flush5,000,000
328/04 11:15INOEL234Royal flush20,000,000
428/04 11:11AJEX666Royal flush1,000,000
528/04 11:09SISKA58Royal flush1,000,000
TOP STRAIGHT FLUSH
No.TanggalNamaPriceWin
128/04 11:20X4VWVS267HStraight Flush120,000
228/04 11:20CUX89Straight Flush120,000
328/04 11:19QILA9Straight Flush120,000
428/04 11:12IING00Straight Flush120,000
528/04 11:11DF47C8ACStraight Flush120,000
LATEST JACKPOT
No.TanggalNamaPriceWin
128/04 11:20AMIRARKFull House1,000
228/04 11:20BOWOHOKIFull House1,000
328/04 11:20IMAZA99Full House1,000
428/04 11:20BRUTAL009Full House5,000
528/04 11:20J4L4K77Full House10,000
628/04 11:20NGAMOT2711Full House1,000
728/04 11:20X4VWVS267HStraight Flush120,000
828/04 11:20CUX89Straight Flush120,000
928/04 11:20MUSTANG31Full House10,000
1028/04 11:19NENER123Full House5,000
1128/04 11:19BUE123Full House5,000
1228/04 11:19PETTIR77Full House5,000
1328/04 11:19QILA9Straight Flush120,000
1428/04 11:19JCG4N9RN7UFull House1,000
1528/04 11:19SPLIT19Full House5,000
1628/04 11:19KINGRINAFour Of A Kind250,000
1728/04 11:19JR414Full House10,000
1828/04 11:19ZIZIKAFull House1,000
1928/04 11:19K4N3Z4Full House5,000
2028/04 11:19HASJUN06Full House5,000
2128/04 11:19AHAUUU99Full House10,000
2228/04 11:19CAIR2MFull House5,000
2328/04 11:19YONDAIMEDEFull House1,000
2428/04 11:19DEWARAJA88Full House20,000
2528/04 11:19SHARP_TGRFull House20,000
2628/04 11:19KAMUTULAHFull House5,000
2728/04 11:19TENYOM26Full House1,000
2828/04 11:19LONTEMARTFull House1,000
2928/04 11:19CRAZY1313Full House5,000
3028/04 11:19IZ15129Full House1,000
3128/04 11:19SPARTAN95Full House1,000
3228/04 11:19IKILLO77Full House5,000
3328/04 11:19IWEL78Full House10,000
3428/04 11:19FUN008Full House20,000
3528/04 11:19DICT4T0RFull House5,000
3628/04 11:19QVIRGO88Full House1,000
3728/04 11:19ZOELIAT88Full House5,000
3828/04 11:19GUSTI505Full House5,000
3928/04 11:19RIFF99Full House1,000
4028/04 11:19BDN7777Full House10,000
4128/04 11:19CHUMIE3332Full House10,000
4228/04 11:19ECVPLW54GQFull House1,000
4328/04 11:19TEMPUR82Full House1,000
4428/04 11:18FANS55Full House10,000
4528/04 11:18ELDI45Full House1,000
4628/04 11:18ZULKIFE68Full House1,000
4728/04 11:18JRK79Full House5,000
4828/04 11:18KUNT3T212Full House5,000
4928/04 11:18MUMETT98Full House5,000
5028/04 11:18ENJELKINGFull House10,000

Domino Multi Jackpot System

Ikutilah global jackpot yang tersedia di system kami, dengan system jackpot terbaru dan pertama di indonesia, anda dapat membeli jackpot dengan harga 100 rupiah saja dan menangkan hadiahnya hingga puluhan juta rupiah.

Jackpot bukanlah suatu keharusan untuk dibeli, namun kami memberikan suatu fitur tambahan untuk member tercinta dari www.juvepoker.com.

Terdapat tiga pilihan harga jackpot yang bisa anda beli yaitu :100,500 dan 1000 rupiah.

Hadiah dari Multi jackpot system www.juvepoker.com

  1. Murni Kecil x 50 harga jackpot yang anda beli.
      (contoh:anda membeli 1000 maka:1000 X 50 = 50.000)
  2. Murni Besar x 50 harga jackpot yang anda beli
      (contoh:anda membeli 1000 maka:1000 X 50 = 50.000)
  3. BALAK x 100 harga jackpot yang anda beli
      (contoh:anda membeli 1000 maka:1000 X 100 = 100.000)
  4. ENAM DEWA x 6666 harga jackpot yang anda beli
      (contoh:anda membeli 1000 maka:1000 X 6666 = 6.666.000)

Demikian adalah penjelasan dari Multi Jackpot www.juvepoker.com terima kasih dan selamat bermain salam hoki dari kami

Domino Jackpot Winner

TOP ENAM DEWA
No.TanggalNamaPriceWin
128/04 09:27A294CB5Amurni enam3,333,000
228/04 04:44BERNAD212murni enam666,600
328/04 02:05AXELLE97murni enam3,333,000
428/04 01:18JOKOSU21murni enam6,666,000
528/04 01:00ANGPRA33murni enam6,666,000
TOP BALAK
No.TanggalNamaPriceWin
128/04 11:18RANNDOM1balak50,000
228/04 11:17MB97balak50,000
328/04 11:15KOERSI11balak100,000
428/04 11:14BAGASAbalak100,000
528/04 11:13J354FK4W2Ibalak100,000
LATEST JACKPOT
No.TanggalNamaPriceWin
128/04 11:19YD0X33PQNXmurni kecil25,000
228/04 11:19ADERA14murni besar50,000
328/04 11:18RANNDOM1balak50,000
428/04 11:17MB97balak50,000
528/04 11:15WEN378APJYmurni kecil5,000
628/04 11:15KOERSI11balak100,000
728/04 11:14IVCZ0TVLTKmurni besar5,000
828/04 11:14BAGASAbalak100,000
928/04 11:13J354FK4W2Ibalak100,000
1028/04 11:13OEULYF6XZNbalak50,000
1128/04 11:12IPAHSARIPAmurni besar50,000
1228/04 11:12UMPUR355murni besar5,000
1328/04 11:12DM168238murni kecil25,000
1428/04 11:12T4DAJIB12murni besar5,000
1528/04 11:12GARDENA89murni kecil50,000
1628/04 11:12LUGNUT86murni kecil50,000
1728/04 11:12UTBMmurni besar50,000
1828/04 11:11ANDI83murni kecil50,000
1928/04 11:10UYEP23murni kecil50,000
2028/04 11:10VSM2UTD06Dmurni kecil50,000
2128/04 11:09RIDDOM63murni besar25,000
2228/04 11:09KERONTANbalak10,000
2328/04 11:08AKONK321balak50,000
2428/04 11:07PR012ZENmurni besar25,000
2528/04 11:07R0SS146murni besar5,000
2628/04 11:07UYEP23murni kecil50,000
2728/04 11:07TEPLOX99murni kecil5,000
2828/04 11:07AKONK321murni kecil25,000
2928/04 11:07F39JSmurni kecil25,000
3028/04 11:06BUL3E123murni besar50,000
3128/04 11:06BALUDUS7murni besar5,000
3228/04 11:04TOMZ1986balak50,000
3328/04 11:04UYEP23murni kecil50,000
3428/04 11:03REKAGE99balak50,000
3528/04 11:03J354FK4W2Imurni besar50,000
3628/04 11:01BUL3E123balak100,000
3728/04 11:01NGEZONKmurni kecil5,000
3828/04 10:59TOMZ1986murni kecil25,000
3928/04 10:58ADJIK899murni kecil50,000
4028/04 10:58SUSANA777balak50,000
4128/04 10:58DORI238murni besar5,000
4228/04 10:58ILMIRA16murni kecil50,000
4328/04 10:57W4LET0888balak50,000
4428/04 10:56TYUL90murni kecil25,000
4528/04 10:56DIDIK096murni besar5,000
4628/04 10:55GENTAR17murni besar25,000
4728/04 10:55ANA1303murni besar50,000
4828/04 10:55EGAVH89murni besar25,000
4928/04 10:55KACAU53murni besar5,000
5028/04 10:53SANJOmurni besar25,000

Ceme Multi Jackpot System

Jackpot dilihat dari gabungan kartu pemain dengan kartu bandar. Bandar harus membeli jackpot sebanyak jumlah player yang sedang duduk. Sebagai contoh bila terdapat 3 pemain duduk bermain, dan bandar memutuskan untuk membeli jackpot Rp 1.000, maka pada periode tersebut bandar akan membeli jackpot sebanyak 3xRp1.000 = Rp3.000.

Jackpot bukanlah suatu keharusan untuk dibeli, namun kami memberikan suatu fitur tambahan untuk member tercinta dari www.juvepoker.com.

Terdapat tiga pilihan harga jackpot yang bisa anda beli yaitu :100,500 dan 1000 rupiah.

Hadiah dari Multi jackpot system www.juvepoker.com

  1. Murni Kecil x 50 harga jackpot yang anda beli.
      (contoh:anda membeli 1000 maka:1000 X 50 = 50.000)
  2. Murni Besar x 50 harga jackpot yang anda beli
      (contoh:anda membeli 1000 maka:1000 X 50 = 50.000)
  3. BALAK x 200 harga jackpot yang anda beli
      (contoh:anda membeli 1000 maka:1000 X 200 = 200.000)
  4. ENAM DEWA x 6666 harga jackpot yang anda beli
      (contoh:anda membeli 1000 maka:1000 X 6666 = 6.666.000)

Demikian adalah penjelasan dari Multi Jackpot www.juvepoker.com terima kasih dan selamat bermain salam hoki dari kami

Ceme Jackpot Winner

TOP ENAM DEWA
No.TanggalNamaPriceWin
128/04 11:18MIMINDUTmurni enam3,333,000
228/04 11:18HHAAHAmurni enam666,600
328/04 11:18SALTIGRADAmurni enam6,666,000
428/04 11:12AVO0XT4HE1murni enam6,666,000
528/04 10:54FITRAA444murni enam3,333,000
TOP BALAK
No.TanggalNamaPriceWin
128/04 11:17BLACKHOT88balak200,000
228/04 11:16DIBA87balak200,000
328/04 11:16F752652Dbalak200,000
428/04 11:16NGALONG5balak200,000
528/04 11:15FEBRI208balak200,000
LATEST JACKPOT
No.TanggalNamaPriceWin
128/04 11:20COMSUY86murni besar50,000
228/04 11:20FIZHYMIRmurni kecil50,000
328/04 11:19COLONG100murni kecil50,000
428/04 11:19DFJ29murni besar50,000
528/04 11:19TASYAMANEHmurni besar50,000
628/04 11:19DGTIKAmurni kecil25,000
728/04 11:19REIYWAmurni kecil5,000
828/04 11:19DIBA87murni kecil50,000
928/04 11:19WANDA100murni kecil50,000
1028/04 11:19FB99CDBFmurni kecil5,000
1128/04 11:18MIMINDUTmurni enam3,333,000
1228/04 11:18HHAAHAmurni enam666,600
1328/04 11:18SEMUT909murni kecil25,000
1428/04 11:18MOHARE9murni kecil5,000
1528/04 11:18SALTIGRADAmurni enam6,666,000
1628/04 11:18BREAD007murni kecil25,000
1728/04 11:18MAXPLANK99murni kecil50,000
1828/04 11:18PEEMANmurni kecil50,000
1928/04 11:18FC2BB75Emurni kecil50,000
2028/04 11:18KYNA18murni kecil5,000
2128/04 11:18Z7VSKMA6O5murni kecil5,000
2228/04 11:18DIAN8181murni kecil5,000
2328/04 11:18BUDI9877murni kecil5,000
2428/04 11:18TASYAMANEHmurni kecil50,000
2528/04 11:18ACSISmurni kecil25,000
2628/04 11:17TB009murni besar50,000
2728/04 11:17T4NT082murni besar50,000
2828/04 11:17AKTIVIS98murni besar50,000
2928/04 11:17KAPRI86murni besar50,000
3028/04 11:17LOMBOK67murni besar25,000
3128/04 11:17BLACKHOT88balak200,000
3228/04 11:16DIBA87balak200,000
3328/04 11:16MANJA7777murni besar25,000
3428/04 11:16F752652Dbalak200,000
3528/04 11:16GOBER2626murni kecil50,000
3628/04 11:16NGALONG5balak200,000
3728/04 11:16NIPPON17murni besar50,000
3828/04 11:16ALLBY01murni besar50,000
3928/04 11:16ZBQ2323murni besar50,000
4028/04 11:15ZUBEDImurni kecil50,000
4128/04 11:15RAH0117murni besar5,000
4228/04 11:15DIBA87murni besar50,000
4328/04 11:15JAGUNG32murni besar50,000
4428/04 11:15FEBRI208balak200,000
4528/04 11:15FC2BB75Emurni besar50,000
4628/04 11:15ANDOJBTmurni kecil5,000
4728/04 11:15BOZS21murni kecil50,000
4828/04 11:14MEXI69balak20,000
4928/04 11:14PUTRENmurni kecil25,000
5028/04 11:14COMBET45murni besar50,000